Location: Unspecified
(50.7693°N, 0.0000°E)
Time: 16:12:53
(UTC+00:00)

Transit 4A - Pass Details

Date: 26 June 2019
Orbit: 862 x 982 km, 66.8° (Epoch: 18 July)

Event Time Altitude Azimuth Distance (km) Brightness Sun altitude
Rises 13:16:17 0° 316° (NW) 3,697 11.0 59.1°
Reaches altitude 10° 13:19:22 10° 329° (NNW) 2,746 10.4 58.8°
Maximum altitude 13:24:39 26° 24° (NNE) 1,834 9.5 58.3°
Drops below altitude 10° 13:29:51 10° 79° (E) 2,710 10.2 57.8°
Sets 13:32:52 0° 93° (E) 3,638 10.8 57.5°
